EW2835 Weather Reports


Display with metric or nautical units.
time (UTC)temp
F
wind
direction
speed
MPH
gust
MPH
rain 1hr
in
rain 24hr
in
rain mn
in
humidity
%
barometer
mb
20260906173030 62 299 0.0 0.0 0.00 0.01 0.01 66 1025.4
20260906171529 63 299 0.0 1.0 0.00 0.01 0.01 63 1025.5
20260906170028 64 228 0.0 2.0 0.00 0.01 0.01 61 1025.5
20260906164527 64 201 0.0 2.0 0.00 0.01 0.01 61 1025.6
20260906163029 65 267 1.0 4.0 0.00 0.01 0.01 60 1025.6
20260906160053 66 196 1.0 7.0 0.00 0.01 0.01 59 1025.5
20260906154557 66 267 1.0 4.0 0.00 0.01 0.01 57 1025.5
20260906153051 67 281 2.0 8.0 0.00 0.01 0.01 58 1025.7
20260906151601 67 244 1.0 6.0 0.00 0.01 0.01 56 1025.6
20260906150051 67 228 1.0 10.0 0.00 0.01 0.01 56 1025.6
20260906144548 67 152 1.0 12.0 0.00 0.06 0.01 55 1025.6
20260906143106 68 302 3.0 11.0 0.00 0.06 0.01 54 1025.8
20260906141551 68 273 4.0 9.0 0.00 0.06 0.01 55 1025.8
20260906140048 69 284 2.0 10.0 0.00 0.06 0.01 58 1025.9
20260906134551 69 305 3.0 8.0 0.00 0.06 0.01 54 1026.0
20260906133047 70 149 1.0 6.0 0.00 0.06 0.01 55 1025.9
20260906131550 69 258 3.0 12.0 0.00 0.06 0.01 56 1026.0
20260906130045 70 289 2.0 10.0 0.00 0.06 0.01 55 1025.9
20260906124540 69 186 3.0 12.0 0.00 0.06 0.01 56 1026.1
20260906123039 68 277 1.0 10.0 0.00 0.06 0.01 58 1026.1
20260906121540 69 285 3.0 11.0 0.00 0.06 0.01 58 1026.1
20260906120036 69 312 1.0 8.0 0.00 0.06 0.01 58 1026.1
20260906114536 66 207 2.0 11.0 0.00 0.06 0.01 62 1026.3
20260906113042 66 259 5.0 14.0 0.01 0.06 0.01 58 1026.2
20260906111535 68 303 4.0 9.0 0.01 0.06 0.01 59 1026.1
20260906110031 66 264 2.0 10.0 0.01 0.06 0.01 59 1026.1
20260906104531 65 308 4.0 10.0 0.01 0.06 0.01 60 1026.0
20260906103029 68 316 2.0 11.0 0.00 0.06 0.00 58 1025.8
20260906101526 68 261 1.0 8.0 0.00 0.06 0.00 62 1025.8
20260906100023 67 292 1.0 8.0 0.00 0.06 0.00 64 1025.7
20260906094531 66 297 2.0 8.0 0.00 0.06 0.00 63 1025.8
20260906093019 64 308 3.0 9.0 0.00 0.06 0.00 66 1025.9
20260906091526 64 242 2.0 11.0 0.00 0.06 0.00 69 1025.9
20260906090014 64 250 2.0 5.0 0.00 0.06 0.00 72 1025.9
20260906084520 62 292 3.0 10.0 0.00 0.06 0.00 73 1025.9
20260906083019 63 275 2.0 10.0 0.00 0.06 0.00 73 1025.6
20260906081521 61 278 2.0 9.0 0.00 0.06 0.00 77 1025.6
20260906080004 62 177 0.0 6.0 0.00 0.06 0.00 76 1025.4
20260906074601 61 255 1.0 8.0 0.00 0.06 0.00 78 1025.3
20260906073057 60 292 0.0 6.0 0.00 0.06 0.00 79 1025.0
20260906071604 59 252 2.0 10.0 0.00 0.06 0.00 80 1024.9
20260906070049 59 290 1.0 6.0 0.00 0.06 0.00 82 1024.8
20260906064545 58 282 3.0 10.0 0.00 0.06 0.00 83 1024.7
20260906063041 57 290 2.0 7.0 0.00 0.06 0.00 86 1024.5
20260906061538 56 269 2.0 9.0 0.00 0.06 0.00 88 1024.5
20260906060032 55 309 1.0 6.0 0.00 0.06 0.00 90 1024.2
20260906054528 54 265 1.0 7.0 0.00 0.06 0.00 91 1024.0
20260906053029 54 275 1.0 8.0 0.00 0.06 0.00 92 1023.9
20260906051530 53 252 1.0 5.0 0.00 0.06 0.00 94 1023.7
20260906050045 52 302 1.0 7.0 0.00 0.06 0.00 94 1023.5
20260906044517 52 289 0.0 5.0 0.00 0.06 0.00 93 1023.5
20260906043015 52 250 1.0 4.0 0.00 0.06 0.00 92 1023.4
20260906041516 52 253 0.0 3.0 0.00 0.06 0.00 91 1023.2
20260906040009 53 260 0.0 2.0 0.00 0.06 0.00 91 1023.2
20260906034508 53 271 0.0 3.0 0.00 0.06 0.00 91 1023.0
20260906033006 54 304 1.0 7.0 0.00 0.06 0.00 91 1023.0
20260906031504 54 273 0.0 6.0 0.00 0.06 0.00 91 1022.9
20260906030002 54 276 1.0 4.0 0.00 0.06 0.00 90 1022.8
20260906024603 55 293 0.0 12.0 0.00 0.06 0.00 90 1022.7
20260906023119 55 275 1.0 4.0 0.00 0.06 0.00 90 1022.6
20260906021611 55 263 0.0 5.0 0.00 0.06 0.00 90 1022.7
20260906020100 55 265 0.0 5.0 0.00 0.06 0.00 90 1022.5
20260906014557 55 283 0.0 5.0 0.00 0.06 0.00 90 1022.4
20260906013052 54 231 0.0 5.0 0.00 0.06 0.00 90 1022.1
20260906011550 55 287 1.0 4.0 0.00 0.06 0.00 90 1021.9
20260906010047 55 267 0.0 3.0 0.00 0.06 0.00 90 1021.8
20260906004545 55 298 1.0 5.0 0.00 0.06 0.00 89 1021.7
20260906003050 55 235 1.0 7.0 0.00 0.06 0.00 89 1021.7
20260906001541 56 317 1.0 4.0 0.00 0.06 0.00 88 1021.6
20260906000140 56 277 0.0 9.0 0.00 0.06 0.00 88 1021.5
20260905234548 56 302 2.0 5.0 0.00 0.06 0.00 87 1021.5
20260905233037 56 259 0.0 6.0 0.00 0.06 0.00 86 1021.5
20260905231533 57 254 1.0 4.0 0.00 0.06 0.00 85 1021.3
20260905230031 57 264 2.0 7.0 0.00 0.06 0.00 84 1021.2
20260905224529 57 295 2.0 7.0 0.00 0.06 0.00 84 1021.1
20260905223029 57 244 1.0 6.0 0.00 0.06 0.00 85 1020.9
20260905221526 57 204 1.0 7.0 0.00 0.06 0.00 85 1020.9
20260905220027 57 294 2.0 5.0 0.00 0.06 0.00 86 1020.8
20260905214521 56 235 2.0 6.0 0.00 0.06 0.06 86 1020.7
20260905213022 57 278 0.0 5.0 0.00 0.06 0.06 86 1020.6
20260905211516 56 273 3.0 8.0 0.00 0.06 0.06 86 1020.3
20260905210015 57 237 1.0 6.0 0.00 0.06 0.06 85 1020.3
20260905204514 57 233 0.0 3.0 0.00 0.06 0.06 84 1020.3
20260905203014 57 265 1.0 8.0 0.00 0.06 0.06 84 1020.1
20260905201511 57 282 3.0 11.0 0.00 0.06 0.06 85 1019.9
20260905200010 57 318 0.0 4.0 0.00 0.06 0.06 85 1019.8
20260905194509 58 279 0.0 2.0 0.00 0.06 0.06 83 1019.6
20260905193011 58 269 1.0 5.0 0.00 0.06 0.06 83 1019.5
20260905191506 58 252 2.0 8.0 0.00 0.06 0.06 82 1019.3
20260905190007 58 282 2.0 8.0 0.00 0.06 0.06 83 1019.1
20260905184505 58 266 2.0 10.0 0.00 0.09 0.06 85 1018.9
20260905183101 57 267 3.0 11.0 0.00 0.09 0.06 86 1018.8
20260905181557 58 273 1.0 10.0 0.00 0.09 0.06 87 1018.6
20260905180054 58 252 0.0 6.0 0.00 0.09 0.06 89 1018.3
20260905174557 58 246 1.0 7.0 0.00 0.15 0.06 90 1018.0